owner,sensor,date,latitude,longitude,air_temperature,qcFlag 
LUMCON,ioos:station:LUMCON:103:1,2009-04-12T19:00:00Z,30.1889,-90.1683,21.7,11111222 
LUMCON,ioos:station:LUMCON:103:1,2009-04-12T20:00:00Z,30.1889,-90.1683,21.9,11111222 
LUMCON,ioos:station:LUMCON:103:1,2009-04-12T21:00:00Z,30.1889,-90.1683,22.1,11111222 
LUMCON,ioos:station:LUMCON:103:1,2009-04-12T23:00:00Z,30.1889,-90.1683,22.7,11111222 
LUMCON,ioos:station:LUMCON:103:1,2009-04-13T00:00:00Z,30.1889,-90.1683,22.8,11111222 
LUMCON,ioos:station:LUMCON:103:1,2009-04-13T03:00:00Z,30.1889,-90.1683,22.6,11111222 
LUMCON,ioos:station:LUMCON:103:1,2009-04-13T04:00:00Z,30.1889,-90.1683,22.5,11111222 
LUMCON,ioos:station:LUMCON:103:1,2009-04-13T06:00:00Z,30.1889,-90.1683,22.4,11111222 
LUMCON,ioos:station:LUMCON:103:1,2009-04-13T07:00:00Z,30.1889,-90.1683,22.4,11111222 
LUMCON,ioos:station:LUMCON:103:1,2009-04-13T08:00:00Z,30.1889,-90.1683,22.3,11111222 
LUMCON,ioos:station:LUMCON:103:1,2009-04-13T09:00:00Z,30.1889,-90.1683,21.9,11111222 
LUMCON,ioos:station:LUMCON:103:1,2009-04-13T10:00:00Z,30.1889,-90.1683,21.4,11111222 
LUMCON,ioos:station:LUMCON:103:1,2009-04-13T12:00:00Z,30.1889,-90.1683,20.7,11111222 
LUMCON,ioos:station:LUMCON:103:1,2009-04-13T13:00:00Z,30.1889,-90.1683,21.1,11111222 
LUMCON,ioos:station:LUMCON:103:1,2009-04-13T14:00:00Z,30.1889,-90.1683,21.7,11111222 
LUMCON,ioos:station:LUMCON:103:1,2009-04-13T15:00:00Z,30.1889,-90.1683,21.5,11111222 
LUMCON,ioos:station:LUMCON:103:1,2009-04-13T16:00:00Z,30.1889,-90.1683,21.9,11111222 
LUMCON,ioos:station:LUMCON:103:1,2009-04-13T17:00:00Z,30.1889,-90.1683,22.3,11111222 
LUMCON,ioos:station:LUMCON:103:1,2009-04-13T18:00:00Z,30.1889,-90.1683,23.3,11111222 
LUMCON,ioos:station:LUMCON:103:1,2009-04-13T19:00:00Z,30.1889,-90.1683,24.4,11111222 
LUMCON,ioos:station:LUMCON:103:1,2009-04-13T20:00:00Z,30.1889,-90.1683,24.5,11111222 
LUMCON,ioos:station:LUMCON:103:1,2009-04-13T21:00:00Z,30.1889,-90.1683,24.6,11111222 
LUMCON,ioos:station:LUMCON:103:1,2009-04-13T22:00:00Z,30.1889,-90.1683,25.5,11111222 
LUMCON,ioos:station:LUMCON:103:1,2009-04-13T23:00:00Z,30.1889,-90.1683,25.3,11111222 
LUMCON,ioos:station:LUMCON:103:1,2009-04-14T00:00:00Z,30.1889,-90.1683,23.7,11111222 
LUMCON,ioos:station:LUMCON:103:1,2009-04-14T01:00:00Z,30.1889,-90.1683,23.0,11111222 
LUMCON,ioos:station:LUMCON:103:1,2009-04-14T02:00:00Z,30.1889,-90.1683,22.5,11111222 
LUMCON,ioos:station:LUMCON:103:1,2009-04-14T03:00:00Z,30.1889,-90.1683,22.0,11111222 
LUMCON,ioos:station:LUMCON:103:1,2009-04-14T04:00:00Z,30.1889,-90.1683,21.0,11111222 
LUMCON,ioos:station:LUMCON:103:1,2009-04-14T05:00:00Z,30.1889,-90.1683,20.6,11111222 
LUMCON,ioos:station:LUMCON:103:1,2009-04-14T06:00:00Z,30.1889,-90.1683,19.7,11111222 
LUMCON,ioos:station:LUMCON:103:1,2009-04-14T07:00:00Z,30.1889,-90.1683,18.8,11111222 
LUMCON,ioos:station:LUMCON:103:1,2009-04-14T08:00:00Z,30.1889,-90.1683,17.8,11111222 
LUMCON,ioos:station:LUMCON:103:1,2009-04-14T09:00:00Z,30.1889,-90.1683,16.4,11111222 
LUMCON,ioos:station:LUMCON:103:1,2009-04-14T10:00:00Z,30.1889,-90.1683,15.0,11111222 
LUMCON,ioos:station:LUMCON:103:1,2009-04-14T11:00:00Z,30.1889,-90.1683,13.9,11111222 
LUMCON,ioos:station:LUMCON:103:1,2009-04-14T12:00:00Z,30.1889,-90.1683,13.1,11111222 
LUMCON,ioos:station:LUMCON:103:1,2009-04-14T13:00:00Z,30.1889,-90.1683,12.8,11111222 
LUMCON,ioos:station:LUMCON:103:1,2009-04-14T14:00:00Z,30.1889,-90.1683,13.2,11111222 
LUMCON,ioos:station:LUMCON:103:1,2009-04-14T15:00:00Z,30.1889,-90.1683,13.7,11111222 
LUMCON,ioos:station:LUMCON:103:1,2009-04-14T16:00:00Z,30.1889,-90.1683,14.8,11111222 
LUMCON,ioos:station:LUMCON:103:1,2009-04-14T17:00:00Z,30.1889,-90.1683,15.8,11111222 
LUMCON,ioos:station:LUMCON:103:1,2009-04-14T18:00:00Z,30.1889,-90.1683,17.2,11111222 
LUMCON,ioos:station:LUMCON:103:1,2009-04-14T19:00:00Z,30.1889,-90.1683,18.3,11111222 
LUMCON,ioos:station:LUMCON:103:1,2009-04-14T20:00:00Z,30.1889,-90.1683,19.3,11111222 
LUMCON,ioos:station:LUMCON:103:1,2009-04-14T21:00:00Z,30.1889,-90.1683,20.1,11111222 
LUMCON,ioos:station:LUMCON:103:1,2009-04-14T22:00:00Z,30.1889,-90.1683,20.8,11111222 
LUMCON,ioos:station:LUMCON:103:1,2009-04-14T23:00:00Z,30.1889,-90.1683,21.1,11111222 
LUMCON,ioos:station:LUMCON:103:1,2009-04-15T00:00:00Z,30.1889,-90.1683,20.4,11111222 
LUMCON,ioos:station:LUMCON:103:1,2009-04-15T01:00:00Z,30.1889,-90.1683,18.8,11111222 
LUMCON,ioos:station:LUMCON:103:1,2009-04-15T02:00:00Z,30.1889,-90.1683,17.9,11111222 
LUMCON,ioos:station:LUMCON:103:1,2009-04-15T03:00:00Z,30.1889,-90.1683,17.4,11111222 
LUMCON,ioos:station:LUMCON:103:1,2009-04-15T04:00:00Z,30.1889,-90.1683,16.9,11111222 
LUMCON,ioos:station:LUMCON:103:1,2009-04-15T05:00:00Z,30.1889,-90.1683,16.9,11111222 
LUMCON,ioos:station:LUMCON:103:1,2009-04-15T06:00:00Z,30.1889,-90.1683,16.2,11111222 
LUMCON,ioos:station:LUMCON:103:1,2009-04-15T07:00:00Z,30.1889,-90.1683,15.7,11111222 
LUMCON,ioos:station:LUMCON:103:1,2009-04-15T08:00:00Z,30.1889,-90.1683,15.2,11111222 
LUMCON,ioos:station:LUMCON:103:1,2009-04-15T09:00:00Z,30.1889,-90.1683,15.4,11111222 
LUMCON,ioos:station:LUMCON:103:1,2009-04-15T10:00:00Z,30.1889,-90.1683,15.5,11111222 
LUMCON,ioos:station:LUMCON:103:1,2009-04-15T11:00:00Z,30.1889,-90.1683,15.6,11111222 
LUMCON,ioos:station:LUMCON:103:1,2009-04-15T12:00:00Z,30.1889,-90.1683,15.7,11111222 
LUMCON,ioos:station:LUMCON:103:1,2009-04-15T13:00:00Z,30.1889,-90.1683,16.0,11111222 
LUMCON,ioos:station:LUMCON:103:1,2009-04-15T14:00:00Z,30.1889,-90.1683,16.6,11111222 
LUMCON,ioos:station:LUMCON:103:1,2009-04-15T15:00:00Z,30.1889,-90.1683,18.0,11111222 
LUMCON,ioos:station:LUMCON:103:1,2009-04-15T16:00:00Z,30.1889,-90.1683,18.3,11111222 
LUMCON,ioos:station:LUMCON:103:1,2009-04-15T17:00:00Z,30.1889,-90.1683,18.6,11111222 
LUMCON,ioos:station:LUMCON:103:1,2009-04-15T18:00:00Z,30.1889,-90.1683,19.2,11111222 
LUMCON,ioos:station:LUMCON:103:1,2009-04-15T19:00:00Z,30.1889,-90.1683,19.6,11111222 
LUMCON,ioos:station:LUMCON:103:1,2009-04-15T20:00:00Z,30.1889,-90.1683,20.1,11111222 
LUMCON,ioos:station:LUMCON:103:1,2009-04-15T21:00:00Z,30.1889,-90.1683,20.2,11111222 
LUMCON,ioos:station:LUMCON:103:1,2009-04-15T22:00:00Z,30.1889,-90.1683,20.4,11111222 
LUMCON,ioos:station:LUMCON:103:1,2009-04-15T23:00:00Z,30.1889,-90.1683,20.4,11111222 
LUMCON,ioos:station:LUMCON:103:1,2009-04-16T00:00:00Z,30.1889,-90.1683,20.5,11111222 
LUMCON,ioos:station:LUMCON:103:1,2009-04-16T01:00:00Z,30.1889,-90.1683,20.2,11111222 
LUMCON,ioos:station:LUMCON:103:1,2009-04-16T02:00:00Z,30.1889,-90.1683,19.9,11111222 
LUMCON,ioos:station:LUMCON:103:1,2009-04-16T03:00:00Z,30.1889,-90.1683,19.9,11111222 
LUMCON,ioos:station:LUMCON:103:1,2009-04-16T04:00:00Z,30.1889,-90.1683,19.5,11111222 
LUMCON,ioos:station:LUMCON:103:1,2009-04-16T05:00:00Z,30.1889,-90.1683,19.2,11111222 
LUMCON,ioos:station:LUMCON:103:1,2009-04-16T06:00:00Z,30.1889,-90.1683,18.8,11111222 
LUMCON,ioos:station:LUMCON:103:1,2009-04-16T07:00:00Z,30.1889,-90.1683,18.5,11111222 
LUMCON,ioos:station:LUMCON:103:1,2009-04-16T08:00:00Z,30.1889,-90.1683,18.0,11111222 
LUMCON,ioos:station:LUMCON:103:1,2009-04-16T09:00:00Z,30.1889,-90.1683,17.6,11111222 
LUMCON,ioos:station:LUMCON:103:1,2009-04-16T10:00:00Z,30.1889,-90.1683,17.4,11111222 
LUMCON,ioos:station:LUMCON:103:1,2009-04-16T11:00:00Z,30.1889,-90.1683,17.5,11111222 
LUMCON,ioos:station:LUMCON:103:1,2009-04-16T12:00:00Z,30.1889,-90.1683,16.4,11111222 
LUMCON,ioos:station:LUMCON:103:1,2009-04-16T13:00:00Z,30.1889,-90.1683,17.0,11111222 
LUMCON,ioos:station:LUMCON:103:1,2009-04-16T14:00:00Z,30.1889,-90.1683,17.6,11111222 
LUMCON,ioos:station:LUMCON:103:1,2009-04-16T15:00:00Z,30.1889,-90.1683,18.3,11111222 
LUMCON,ioos:station:LUMCON:103:1,2009-04-16T16:00:00Z,30.1889,-90.1683,19.1,11111222 
LUMCON,ioos:station:LUMCON:103:1,2009-04-16T17:00:00Z,30.1889,-90.1683,19.7,11111222 
LUMCON,ioos:station:LUMCON:103:1,2009-04-16T18:00:00Z,30.1889,-90.1683,20.7,11111222 
LUMCON,ioos:station:LUMCON:103:1,2009-04-16T19:00:00Z,30.1889,-90.1683,20.6,11111222 
LUMCON,ioos:station:LUMCON:103:1,2009-04-16T20:00:00Z,30.1889,-90.1683,19.9,11111222 
LUMCON,ioos:station:LUMCON:103:1,2009-04-16T21:00:00Z,30.1889,-90.1683,20.0,11111222 
LUMCON,ioos:station:LUMCON:103:1,2009-04-16T22:00:00Z,30.1889,-90.1683,20.0,11111222 
LUMCON,ioos:station:LUMCON:103:1,2009-04-16T23:00:00Z,30.1889,-90.1683,20.0,11111222 
LUMCON,ioos:station:LUMCON:103:1,2009-04-17T00:00:00Z,30.1889,-90.1683,19.7,11111222 
LUMCON,ioos:station:LUMCON:103:1,2009-04-17T01:00:00Z,30.1889,-90.1683,19.8,11111222 
LUMCON,ioos:station:LUMCON:103:1,2009-04-17T02:00:00Z,30.1889,-90.1683,19.7,11111222 
LUMCON,ioos:station:LUMCON:103:1,2009-04-17T04:00:00Z,30.1889,-90.1683,19.9,11111222 
LUMCON,ioos:station:LUMCON:103:1,2009-04-17T07:00:00Z,30.1889,-90.1683,19.6,11111222 
LUMCON,ioos:station:LUMCON:103:1,2009-04-17T08:00:00Z,30.1889,-90.1683,18.9,11111222 
LUMCON,ioos:station:LUMCON:103:1,2009-04-17T09:00:00Z,30.1889,-90.1683,19.1,11111222 
LUMCON,ioos:station:LUMCON:103:1,2009-04-17T10:00:00Z,30.1889,-90.1683,19.4,11111222 
LUMCON,ioos:station:LUMCON:103:1,2009-04-17T11:00:00Z,30.1889,-90.1683,19.2,11111222 
LUMCON,ioos:station:LUMCON:103:1,2009-04-17T12:00:00Z,30.1889,-90.1683,19.1,11111222 
LUMCON,ioos:station:LUMCON:103:1,2009-04-17T13:00:00Z,30.1889,-90.1683,19.3,11111222 
LUMCON,ioos:station:LUMCON:103:1,2009-04-17T14:00:00Z,30.1889,-90.1683,19.8,11111222 
LUMCON,ioos:station:LUMCON:103:1,2009-04-17T15:00:00Z,30.1889,-90.1683,21.0,11111222 
LUMCON,ioos:station:LUMCON:103:1,2009-04-17T16:00:00Z,30.1889,-90.1683,21.4,11111222 
LUMCON,ioos:station:LUMCON:103:1,2009-04-17T17:00:00Z,30.1889,-90.1683,22.0,11111222 
LUMCON,ioos:station:LUMCON:103:1,2009-04-17T18:00:00Z,30.1889,-90.1683,22.1,11111222 
LUMCON,ioos:station:LUMCON:103:1,2009-04-17T19:00:00Z,30.1889,-90.1683,21.9,11111222 
LUMCON,ioos:station:LUMCON:103:1,2009-04-17T20:00:00Z,30.1889,-90.1683,22.0,11111222 
LUMCON,ioos:station:LUMCON:103:1,2009-04-17T21:00:00Z,30.1889,-90.1683,21.9,11111222 
LUMCON,ioos:station:LUMCON:103:1,2009-04-17T22:00:00Z,30.1889,-90.1683,21.9,11111222 
LUMCON,ioos:station:LUMCON:103:1,2009-04-17T23:00:00Z,30.1889,-90.1683,21.6,11111222 
LUMCON,ioos:station:LUMCON:103:1,2009-04-18T00:00:00Z,30.1889,-90.1683,21.9,11111222 
LUMCON,ioos:station:LUMCON:103:1,2009-04-18T01:00:00Z,30.1889,-90.1683,21.2,11111222 
LUMCON,ioos:station:LUMCON:103:1,2009-04-18T02:00:00Z,30.1889,-90.1683,21.2,11111222 
LUMCON,ioos:station:LUMCON:103:1,2009-04-18T03:00:00Z,30.1889,-90.1683,21.2,11111222 
LUMCON,ioos:station:LUMCON:103:1,2009-04-18T04:00:00Z,30.1889,-90.1683,21.5,11111222 
LUMCON,ioos:station:LUMCON:103:1,2009-04-18T05:00:00Z,30.1889,-90.1683,21.2,11111222 
LUMCON,ioos:station:LUMCON:103:1,2009-04-18T06:00:00Z,30.1889,-90.1683,21.3,11111222 
LUMCON,ioos:station:LUMCON:103:1,2009-04-18T07:00:00Z,30.1889,-90.1683,21.4,11111222 
LUMCON,ioos:station:LUMCON:103:1,2009-04-18T08:00:00Z,30.1889,-90.1683,19.9,11111222 
LUMCON,ioos:station:LUMCON:103:1,2009-04-18T09:00:00Z,30.1889,-90.1683,20.2,11111222 
LUMCON,ioos:station:LUMCON:103:1,2009-04-18T10:00:00Z,30.1889,-90.1683,20.3,11111222 
LUMCON,ioos:station:LUMCON:103:1,2009-04-18T11:00:00Z,30.1889,-90.1683,20.6,11111222 
LUMCON,ioos:station:LUMCON:103:1,2009-04-18T12:00:00Z,30.1889,-90.1683,20.8,11111222 
LUMCON,ioos:station:LUMCON:103:1,2009-04-18T13:00:00Z,30.1889,-90.1683,21.0,11111222 
LUMCON,ioos:station:LUMCON:103:1,2009-04-18T14:00:00Z,30.1889,-90.1683,21.5,11111222 
LUMCON,ioos:station:LUMCON:103:1,2009-04-18T15:00:00Z,30.1889,-90.1683,21.2,11111222 
LUMCON,ioos:station:LUMCON:103:1,2009-04-18T16:00:00Z,30.1889,-90.1683,21.8,11111222 
LUMCON,ioos:station:LUMCON:103:1,2009-04-18T17:00:00Z,30.1889,-90.1683,22.2,11111222 
LUMCON,ioos:station:LUMCON:103:1,2009-04-18T18:00:00Z,30.1889,-90.1683,22.2,11111222 
LUMCON,ioos:station:LUMCON:103:1,2009-04-18T19:00:00Z,30.1889,-90.1683,22.2,11111222 
LUMCON,ioos:station:LUMCON:103:1,2009-04-18T20:00:00Z,30.1889,-90.1683,22.5,11111222 
LUMCON,ioos:station:LUMCON:103:1,2009-04-18T21:00:00Z,30.1889,-90.1683,22.4,11111222 
LUMCON,ioos:station:LUMCON:103:1,2009-04-18T22:00:00Z,30.1889,-90.1683,22.2,11111222 
LUMCON,ioos:station:LUMCON:103:1,2009-04-18T23:00:00Z,30.1889,-90.1683,22.0,11111222 
LUMCON,ioos:station:LUMCON:103:1,2009-04-19T00:00:00Z,30.1889,-90.1683,22.0,11111222 
LUMCON,ioos:station:LUMCON:103:1,2009-04-19T01:00:00Z,30.1889,-90.1683,21.9,11111222 
LUMCON,ioos:station:LUMCON:103:1,2009-04-19T02:00:00Z,30.1889,-90.1683,21.9,11111222 
LUMCON,ioos:station:LUMCON:103:1,2009-04-19T04:00:00Z,30.1889,-90.1683,21.8,11111222 
LUMCON,ioos:station:LUMCON:103:1,2009-04-19T05:00:00Z,30.1889,-90.1683,21.7,11111222 
LUMCON,ioos:station:LUMCON:103:1,2009-04-19T06:00:00Z,30.1889,-90.1683,21.6,11111222 
LUMCON,ioos:station:LUMCON:103:1,2009-04-19T07:00:00Z,30.1889,-90.1683,21.5,11111222 
LUMCON,ioos:station:LUMCON:103:1,2009-04-19T08:00:00Z,30.1889,-90.1683,21.4,11111222 
LUMCON,ioos:station:LUMCON:103:1,2009-04-19T09:00:00Z,30.1889,-90.1683,21.6,11111222 
LUMCON,ioos:station:LUMCON:103:1,2009-04-19T10:00:00Z,30.1889,-90.1683,21.7,11111222 
LUMCON,ioos:station:LUMCON:103:1,2009-04-19T11:00:00Z,30.1889,-90.1683,20.2,11111222 
LUMCON,ioos:station:LUMCON:103:1,2009-04-19T12:00:00Z,30.1889,-90.1683,19.5,11111222 
LUMCON,ioos:station:LUMCON:103:1,2009-04-19T13:00:00Z,30.1889,-90.1683,21.4,11111222 
LUMCON,ioos:station:LUMCON:103:1,2009-04-19T14:00:00Z,30.1889,-90.1683,21.6,11111222 
LUMCON,ioos:station:LUMCON:103:1,2009-04-19T15:00:00Z,30.1889,-90.1683,21.7,11111222 
LUMCON,ioos:station:LUMCON:103:1,2009-04-19T16:00:00Z,30.1889,-90.1683,22.1,11111222 
LUMCON,ioos:station:LUMCON:103:1,2009-04-19T17:00:00Z,30.1889,-90.1683,22.9,11111222 
LUMCON,ioos:station:LUMCON:103:1,2009-04-19T18:00:00Z,30.1889,-90.1683,23.0,11111222 
LUMCON,ioos:station:LUMCON:103:1,2009-04-19T19:00:00Z,30.1889,-90.1683,24.6,11111222 
LUMCON,ioos:station:LUMCON:103:1,2009-04-19T20:00:00Z,30.1889,-90.1683,24.6,11111222 
LUMCON,ioos:station:LUMCON:103:1,2009-04-19T21:00:00Z,30.1889,-90.1683,24.7,11111222 
LUMCON,ioos:station:LUMCON:103:1,2009-04-19T22:00:00Z,30.1889,-90.1683,24.7,11111222 
LUMCON,ioos:station:LUMCON:103:1,2009-04-19T23:00:00Z,30.1889,-90.1683,24.3,11111222 
LUMCON,ioos:station:LUMCON:103:1,2009-04-20T00:00:00Z,30.1889,-90.1683,23.9,11111222 
LUMCON,ioos:station:LUMCON:103:1,2009-04-20T01:00:00Z,30.1889,-90.1683,23.1,11111222 
LUMCON,ioos:station:LUMCON:103:1,2009-04-20T02:00:00Z,30.1889,-90.1683,22.6,11111222 
LUMCON,ioos:station:LUMCON:103:1,2009-04-20T03:00:00Z,30.1889,-90.1683,22.3,11111222 
LUMCON,ioos:station:LUMCON:103:1,2009-04-20T04:00:00Z,30.1889,-90.1683,21.2,11111222 
LUMCON,ioos:station:LUMCON:103:1,2009-04-20T05:00:00Z,30.1889,-90.1683,20.5,11111222 
LUMCON,ioos:station:LUMCON:103:1,2009-04-20T06:00:00Z,30.1889,-90.1683,19.6,11111222 
LUMCON,ioos:station:LUMCON:103:1,2009-04-20T07:00:00Z,30.1889,-90.1683,18.9,11111222 
LUMCON,ioos:station:LUMCON:103:1,2009-04-20T08:00:00Z,30.1889,-90.1683,18.4,11111222 
LUMCON,ioos:station:LUMCON:103:1,2009-04-20T09:00:00Z,30.1889,-90.1683,17.7,11111222 
LUMCON,ioos:station:LUMCON:103:1,2009-04-20T10:00:00Z,30.1889,-90.1683,17.1,11111222 
LUMCON,ioos:station:LUMCON:103:1,2009-04-20T11:00:00Z,30.1889,-90.1683,16.6,11111222 
LUMCON,ioos:station:LUMCON:103:1,2009-04-20T12:00:00Z,30.1889,-90.1683,16.1,11111222 
LUMCON,ioos:station:LUMCON:103:1,2009-04-20T13:00:00Z,30.1889,-90.1683,16.3,11111222 
LUMCON,ioos:station:LUMCON:103:1,2009-04-20T15:00:00Z,30.1889,-90.1683,17.7,11111222 
LUMCON,ioos:station:LUMCON:103:1,2009-04-20T16:00:00Z,30.1889,-90.1683,18.4,11111222 
LUMCON,ioos:station:LUMCON:103:1,2009-04-20T17:00:00Z,30.1889,-90.1683,19.1,11111222 
LUMCON,ioos:station:LUMCON:103:1,2009-04-20T18:00:00Z,30.1889,-90.1683,20.0,11111222 
LUMCON,ioos:station:LUMCON:103:1,2009-04-20T19:00:00Z,30.1889,-90.1683,20.8,11111222 
LUMCON,ioos:station:LUMCON:103:1,2009-04-20T20:00:00Z,30.1889,-90.1683,21.4,11111222 
LUMCON,ioos:station:LUMCON:103:1,2009-04-20T21:00:00Z,30.1889,-90.1683,21.9,11111222 
LUMCON,ioos:station:LUMCON:103:1,2009-04-20T22:00:00Z,30.1889,-90.1683,22.1,11111222 
LUMCON,ioos:station:LUMCON:103:1,2009-04-20T23:00:00Z,30.1889,-90.1683,22.2,11111222 
LUMCON,ioos:station:LUMCON:103:1,2009-04-21T00:00:00Z,30.1889,-90.1683,21.9,11111222 
LUMCON,ioos:station:LUMCON:103:1,2009-04-21T01:00:00Z,30.1889,-90.1683,20.7,11111222 
LUMCON,ioos:station:LUMCON:103:1,2009-04-21T02:00:00Z,30.1889,-90.1683,19.7,11111222 
LUMCON,ioos:station:LUMCON:103:1,2009-04-21T03:00:00Z,30.1889,-90.1683,19.2,11111222 
LUMCON,ioos:station:LUMCON:103:1,2009-04-21T04:00:00Z,30.1889,-90.1683,18.5,11111222 
LUMCON,ioos:station:LUMCON:103:1,2009-04-21T05:00:00Z,30.1889,-90.1683,17.8,11111222 
LUMCON,ioos:station:LUMCON:103:1,2009-04-21T06:00:00Z,30.1889,-90.1683,18.0,11111222 
LUMCON,ioos:station:LUMCON:103:1,2009-04-21T07:00:00Z,30.1889,-90.1683,17.5,11111222 
LUMCON,ioos:station:LUMCON:103:1,2009-04-21T08:00:00Z,30.1889,-90.1683,17.5,11111222 
LUMCON,ioos:station:LUMCON:103:1,2009-04-21T09:00:00Z,30.1889,-90.1683,17.3,11111222 
LUMCON,ioos:station:LUMCON:103:1,2009-04-21T10:00:00Z,30.1889,-90.1683,17.3,11111222 
LUMCON,ioos:station:LUMCON:103:1,2009-04-21T11:00:00Z,30.1889,-90.1683,17.3,11111222 
LUMCON,ioos:station:LUMCON:103:1,2009-04-21T12:00:00Z,30.1889,-90.1683,17.4,11111222 
LUMCON,ioos:station:LUMCON:103:1,2009-04-21T13:00:00Z,30.1889,-90.1683,18.9,11111222 
LUMCON,ioos:station:LUMCON:103:1,2009-04-21T14:00:00Z,30.1889,-90.1683,20.6,11111222 
LUMCON,ioos:station:LUMCON:103:1,2009-04-21T15:00:00Z,30.1889,-90.1683,21.7,11111222 
LUMCON,ioos:station:LUMCON:103:1,2009-04-21T16:00:00Z,30.1889,-90.1683,22.9,11111222 
LUMCON,ioos:station:LUMCON:103:1,2009-04-21T17:00:00Z,30.1889,-90.1683,23.7,11111222 
LUMCON,ioos:station:LUMCON:103:1,2009-04-21T18:00:00Z,30.1889,-90.1683,24.1,11111222 
LUMCON,ioos:station:LUMCON:103:1,2009-04-21T19:00:00Z,30.1889,-90.1683,24.6,11111222 
LUMCON,ioos:station:LUMCON:103:1,2009-04-21T20:00:00Z,30.1889,-90.1683,25.0,11111222 
LUMCON,ioos:station:LUMCON:103:1,2009-04-21T21:00:00Z,30.1889,-90.1683,25.2,11111222 
LUMCON,ioos:station:LUMCON:103:1,2009-04-21T22:00:00Z,30.1889,-90.1683,25.1,11111222 
LUMCON,ioos:station:LUMCON:103:1,2009-04-21T23:00:00Z,30.1889,-90.1683,24.9,11111222 
LUMCON,ioos:station:LUMCON:103:1,2009-04-22T00:00:00Z,30.1889,-90.1683,24.0,11111222 
LUMCON,ioos:station:LUMCON:103:1,2009-04-22T01:00:00Z,30.1889,-90.1683,22.6,11111222 
LUMCON,ioos:station:LUMCON:103:1,2009-04-22T02:00:00Z,30.1889,-90.1683,21.7,11111222 
LUMCON,ioos:station:LUMCON:103:1,2009-04-22T03:00:00Z,30.1889,-90.1683,22.0,11111222 
LUMCON,ioos:station:LUMCON:103:1,2009-04-22T04:00:00Z,30.1889,-90.1683,21.1,11111222 
LUMCON,ioos:station:LUMCON:103:1,2009-04-22T05:00:00Z,30.1889,-90.1683,20.7,11111222 
LUMCON,ioos:station:LUMCON:103:1,2009-04-22T06:00:00Z,30.1889,-90.1683,20.2,11111222 
LUMCON,ioos:station:LUMCON:103:1,2009-04-22T07:00:00Z,30.1889,-90.1683,20.3,11111222 
LUMCON,ioos:station:LUMCON:103:1,2009-04-22T10:00:00Z,30.1889,-90.1683,19.8,11111222 
LUMCON,ioos:station:LUMCON:103:1,2009-04-22T11:00:00Z,30.1889,-90.1683,19.8,11111222 
LUMCON,ioos:station:LUMCON:103:1,2009-04-22T12:00:00Z,30.1889,-90.1683,19.5,11111222 
LUMCON,ioos:station:LUMCON:103:1,2009-04-22T13:00:00Z,30.1889,-90.1683,20.2,11111222 
LUMCON,ioos:station:LUMCON:103:1,2009-04-22T14:00:00Z,30.1889,-90.1683,21.5,11111222 
LUMCON,ioos:station:LUMCON:103:1,2009-04-22T15:00:00Z,30.1889,-90.1683,22.6,11111222 
LUMCON,ioos:station:LUMCON:103:1,2009-04-22T16:00:00Z,30.1889,-90.1683,23.7,11111222 
LUMCON,ioos:station:LUMCON:103:1,2009-04-22T17:00:00Z,30.1889,-90.1683,24.1,11111222 
LUMCON,ioos:station:LUMCON:103:1,2009-04-22T18:00:00Z,30.1889,-90.1683,24.0,11111222 
LUMCON,ioos:station:LUMCON:103:1,2009-04-22T19:00:00Z,30.1889,-90.1683,24.7,11111222 
LUMCON,ioos:station:LUMCON:103:1,2009-04-22T20:00:00Z,30.1889,-90.1683,25.1,11111222 
LUMCON,ioos:station:LUMCON:103:1,2009-04-22T21:00:00Z,30.1889,-90.1683,26.2,11111222 
LUMCON,ioos:station:LUMCON:103:1,2009-04-22T22:00:00Z,30.1889,-90.1683,26.4,11111222 
LUMCON,ioos:station:LUMCON:103:1,2009-04-22T23:00:00Z,30.1889,-90.1683,26.5,11111222 
LUMCON,ioos:station:LUMCON:103:1,2009-04-23T00:00:00Z,30.1889,-90.1683,25.4,11111222 
LUMCON,ioos:station:LUMCON:103:1,2009-04-23T01:00:00Z,30.1889,-90.1683,23.8,11111222 
LUMCON,ioos:station:LUMCON:103:1,2009-04-23T02:00:00Z,30.1889,-90.1683,23.2,11111222 
LUMCON,ioos:station:LUMCON:103:1,2009-04-23T03:00:00Z,30.1889,-90.1683,22.6,11111222 
LUMCON,ioos:station:LUMCON:103:1,2009-04-23T04:00:00Z,30.1889,-90.1683,22.0,11111222 
LUMCON,ioos:station:LUMCON:103:1,2009-04-23T05:00:00Z,30.1889,-90.1683,21.8,11111222 
LUMCON,ioos:station:LUMCON:103:1,2009-04-23T06:00:00Z,30.1889,-90.1683,21.6,11111222 
LUMCON,ioos:station:LUMCON:103:1,2009-04-23T08:00:00Z,30.1889,-90.1683,21.2,11111222 
LUMCON,ioos:station:LUMCON:103:1,2009-04-23T09:00:00Z,30.1889,-90.1683,21.2,11111222 
LUMCON,ioos:station:LUMCON:103:1,2009-04-23T11:00:00Z,30.1889,-90.1683,20.3,11111222 
LUMCON,ioos:station:LUMCON:103:1,2009-04-23T12:00:00Z,30.1889,-90.1683,20.5,11111222 
LUMCON,ioos:station:LUMCON:103:1,2009-04-23T13:00:00Z,30.1889,-90.1683,21.3,11111222 
LUMCON,ioos:station:LUMCON:103:1,2009-04-23T14:00:00Z,30.1889,-90.1683,21.8,11111222 
LUMCON,ioos:station:LUMCON:103:1,2009-04-23T15:00:00Z,30.1889,-90.1683,22.1,11111222 
LUMCON,ioos:station:LUMCON:103:1,2009-04-23T16:00:00Z,30.1889,-90.1683,22.5,11111222 
LUMCON,ioos:station:LUMCON:103:1,2009-04-23T17:00:00Z,30.1889,-90.1683,23.3,11111222 
LUMCON,ioos:station:LUMCON:103:1,2009-04-23T18:00:00Z,30.1889,-90.1683,23.4,11111222 
LUMCON,ioos:station:LUMCON:103:1,2009-04-23T19:00:00Z,30.1889,-90.1683,24.5,11111222 
LUMCON,ioos:station:LUMCON:103:1,2009-04-23T20:00:00Z,30.1889,-90.1683,24.7,11111222 
LUMCON,ioos:station:LUMCON:103:1,2009-04-23T21:00:00Z,30.1889,-90.1683,24.7,11111222 
LUMCON,ioos:station:LUMCON:103:1,2009-04-23T22:00:00Z,30.1889,-90.1683,24.6,11111222 
LUMCON,ioos:station:LUMCON:103:1,2009-04-23T23:00:00Z,30.1889,-90.1683,24.5,11111222 
LUMCON,ioos:station:LUMCON:103:1,2009-04-24T00:00:00Z,30.1889,-90.1683,24.2,11111222 
LUMCON,ioos:station:LUMCON:103:1,2009-04-24T01:00:00Z,30.1889,-90.1683,23.7,11111222 
LUMCON,ioos:station:LUMCON:103:1,2009-04-24T02:00:00Z,30.1889,-90.1683,23.4,11111222 
LUMCON,ioos:station:LUMCON:103:1,2009-04-24T03:00:00Z,30.1889,-90.1683,23.1,11111222 
LUMCON,ioos:station:LUMCON:103:1,2009-04-24T04:00:00Z,30.1889,-90.1683,22.9,11111222 
LUMCON,ioos:station:LUMCON:103:1,2009-04-24T05:00:00Z,30.1889,-90.1683,22.7,11111222 
LUMCON,ioos:station:LUMCON:103:1,2009-04-24T06:00:00Z,30.1889,-90.1683,22.6,11111222 
LUMCON,ioos:station:LUMCON:103:1,2009-04-24T07:00:00Z,30.1889,-90.1683,22.4,11111222 
LUMCON,ioos:station:LUMCON:103:1,2009-04-24T08:00:00Z,30.1889,-90.1683,22.2,11111222 
LUMCON,ioos:station:LUMCON:103:1,2009-04-24T09:00:00Z,30.1889,-90.1683,22.2,11111222 
LUMCON,ioos:station:LUMCON:103:1,2009-04-24T10:00:00Z,30.1889,-90.1683,22.2,11111222 
LUMCON,ioos:station:LUMCON:103:1,2009-04-24T11:00:00Z,30.1889,-90.1683,22.1,11111222 
LUMCON,ioos:station:LUMCON:103:1,2009-04-24T12:00:00Z,30.1889,-90.1683,22.2,11111222 
LUMCON,ioos:station:LUMCON:103:1,2009-04-24T13:00:00Z,30.1889,-90.1683,22.4,11111222 
LUMCON,ioos:station:LUMCON:103:1,2009-04-24T14:00:00Z,30.1889,-90.1683,22.7,11111222 
LUMCON,ioos:station:LUMCON:103:1,2009-04-24T15:00:00Z,30.1889,-90.1683,23.1,11111222 
LUMCON,ioos:station:LUMCON:103:1,2009-04-24T16:00:00Z,30.1889,-90.1683,23.7,11111222 
LUMCON,ioos:station:LUMCON:103:1,2009-04-24T17:00:00Z,30.1889,-90.1683,23.9,11111222 
LUMCON,ioos:station:LUMCON:103:1,2009-04-24T18:00:00Z,30.1889,-90.1683,24.4,11111222 
LUMCON,ioos:station:LUMCON:103:1,2009-04-24T19:00:00Z,30.1889,-90.1683,24.6,11111222 
LUMCON,ioos:station:LUMCON:103:1,2009-04-24T20:00:00Z,30.1889,-90.1683,24.8,11111222 
LUMCON,ioos:station:LUMCON:103:1,2009-04-24T21:00:00Z,30.1889,-90.1683,24.9,11111222 
LUMCON,ioos:station:LUMCON:103:1,2009-04-24T22:00:00Z,30.1889,-90.1683,24.9,11111222 